Regional Weather Roundup
Issued by NWS Glasgow, MT

Home | Current Version | Previous Version | Text Only | Print | Product List | Glossary On
Versions: 1 2 3 4 5 6 7 8 9 10 11 12 13 14 15 16 17 18 19 20 21 22 23 24 25 26 27 28 29 30 31 32 33 34 35 36 37 38 39 40 41 42 43 44 45 46 47 48 49 50
000
ASUS45 KGGW 221915
RWRGGW
HOURLY WEATHER ROUNDUP FOR NORTHEAST MONTANA
NATIONAL WEATHER SERVICE GLASGOW MONTANA
100 PM MDT MON SEP 22 2014

NOTE: "FAIR" INDICATES FEW OR NO CLOUDS BELOW 12,000 FEET WITH NO
SIGNIFICANT WEATHER AND/OR OBSTRUCTIONS TO VISISBILITY.

NORTHEAST MONTANA


CITY           SKY/WX    TMP DP  RH WIND       PRES   REMARKS
GLASGOW        SUNNY     73  45  36 S8G17     29.89F
PLENTYWOOD       N/A     78  39  24 S12         N/A
WOLF POINT     SUNNY     82  48  30 S6        29.89F
JORDAN           N/A     78  47  33 SE10      29.89F
WINNETT          N/A     79  49  34 SE2         N/A
SIDNEY         SUNNY     82  46  28 E7        29.93F
GLENDIVE       SUNNY     79  48  34 E7        29.93F
MALTA            N/A     78  49  35 S3          N/A
OPHEIM           N/A     73  41  31 E9        29.72F

FORT PECK REPORTS


CITY           SKY/WX    TMP DP  RH WIND       PRES   REMARKS
FORT PECK        N/A     72  48  42 SW3         N/A
THE PINES        N/A     79  45  29 E1          N/A

SOUTHEAST MONTANA


CITY           SKY/WX    TMP DP  RH WIND       PRES   REMARKS
BILLINGS       PTSUNNY   75  50  41 SW7       29.95F
MILES CITY     PTSUNNY   77  46  33 S7        29.90F
BAKER          PTSUNNY   74  46  36 SE13G20   29.96F
LIVINGSTON     CLOUDY    69  51  52 W16       30.04S

CENTRAL MONTANA


CITY           SKY/WX    TMP DP  RH WIND       PRES   REMARKS
HAVRE          SUNNY     76  48  37 VRB3      29.87F
LEWISTOWN      MOSUNNY   75  50  41 N5        29.95F
GREAT FALLS    MOSUNNY   80  48  32 SW9       29.91F
CUT BANK       SUNNY     83  41  22 VRB3      29.90F
HELENA         MOSUNNY   73  51  46 E7        29.98F
BUTTE          CLOUDY    63  46  54 SE7       30.11F
BOZEMAN        CLOUDY    67  52  58 NW5       30.07S

WESTERN MONTANA


CITY           SKY/WX    TMP DP  RH WIND       PRES   REMARKS
MISSOULA       SUNNY     75  42  30 CALM      29.98F
KALISPELL      NOT AVBL

NORTH DAKOTA


CITY           SKY/WX    TMP DP  RH WIND       PRES   REMARKS
WILLISTON      SUNNY     80  42  25 S9        29.94F
DICKINSON      SUNNY     77  48  35 S17       29.96F
MINOT          SUNNY     78  44  29 SE13      30.00F
BISMARCK       SUNNY     81  45  28 SE20G26   30.02F

SOUTHERN SASKATCHEWAN


CITY           SKY/WX    TMP DP  RH WIND       PRES   REMARKS
REGINA         SUNNY     77  46  33 SE15G21   29.91F
MOOSE JAW      SUNNY     81  46  30 SE12      29.88F
ESTEVAN        SUNNY     79  48  34 SE8       29.96F
SWIFT CURRENT  SUNNY     79  43  27 S15G24    29.84F




USA.gov is the U.S. government's official web portal to all federal, state and local government web resources and services.